Regional Weather Roundup
Issued by NWS Goodland, KS

Home | Current Version | Previous Version | Graphics & Text | Print | Product List | Glossary On
Versions: 1 2 3 4 5 6 7 8 9 10 11 12 13 14 15 16 17 18 19 20 21 22 23 24 25 26 27 28 29 30 31 32 33 34 35 36 37 38 39 40 41 42 43 44 45 46 47 48 49 50
955
ASUS43 KGLD 061408
RWRGLD

GOODLAND FORECAST AREA HOURLY WEATHER ROUNDUP
NATIONAL WEATHER SERVICE GOODLAND KS
700 AM MST SAT FEB 06 2016

...OFFICIAL OBSERVATIONS...

CITY           SKY/WX    TMP DP  RH WIND       PRES   REMARKS
GOODLAND KS    CLOUDY    19  10  68 SW13      30.24R WCI   6
HILL CITY KS   CLOUDY    16   9  74 W7        30.29S
IMPERIAL NEB   CLOUDY    15   6  67 W12       30.19F WCI   2
MCCOOK NEB     CLOUDY    13   8  81 W12       30.24F WCI  -1
AKRON CO       CLOUDY    15   4  61 W8        30.19S
BURLINGTON CO  CLOUDY    16   6  65 SW12      30.23S WCI   3
LIMON CO       CLOUDY    -1  -7  75 N7        30.23S
$$

...UNOFFICIAL OBSERVATIONS...

CITY           SKY/WX    TMP DP  RH WIND       PRES   REMARKS
COLBY KS       CLEAR     12  10  92 W8        30.26R
GOVE KS          N/A     13  32 100 MISG        N/A
LENORA KS        N/A     19  32 100 MISG        N/A
NORTON KS      CLEAR     12   7  79 SW8       30.25F
SHARON SPRINGS   N/A     18  12  78 SW10        N/A  WCI   6
TRENTON NEB      N/A     15  32 100 MISG        N/A
KIT CARSON CO    N/A      8   2  76 MISG        N/A
YUMA CO          N/A     12   5  73 W8          N/A
$$




USA.gov is the U.S. government's official web portal to all federal, state and local government web resources and services.